Time,TemperatureF,DewpointF,PressureIn,WindDirection,WindDirectionDegrees,WindSpeedMPH,WindSpeedGustMPH,Humidity,HourlyPrecipIn,Conditions,Clouds,dailyrainin,SolarRadiationWatts/m^2,SoftwareType,DateUTC
2013-11-07 00:23:00,29.0,25.0,-100.00,WSW,239,4.0,7.0,85,0.00,,,0.03,0.000000,,2013-11-07 05:23:00,
2013-11-07 00:34:00,29.0,25.0,-100.00,WSW,239,4.0,7.0,85,0.00,,,0.03,0.000000,,2013-11-07 05:34:00,
2013-11-07 00:44:00,29.0,25.0,-100.00,WSW,239,4.0,7.0,85,0.00,,,0.03,0.000000,,2013-11-07 05:44:00,
2013-11-07 00:54:00,29.0,25.0,-100.00,WSW,239,4.0,7.0,85,0.00,,,0.03,0.000000,,2013-11-07 05:54:00,
2013-11-07 01:23:00,29.0,25.0,-100.00,WSW,247,4.0,9.0,86,0.00,,,0.03,0.000000,,2013-11-07 06:23:00,
2013-11-07 01:32:00,29.0,25.0,-100.00,WSW,247,4.0,9.0,86,0.00,,,0.03,0.000000,,2013-11-07 06:32:00,
2013-11-07 01:42:00,29.0,25.0,-100.00,WSW,247,4.0,9.0,86,0.00,,,0.03,0.000000,,2013-11-07 06:42:00,
2013-11-07 01:52:00,29.0,25.0,-100.00,WSW,247,4.0,9.0,86,0.00,,,0.03,0.000000,,2013-11-07 06:52:00,
2013-11-07 02:22:00,29.0,25.0,-100.00,WSW,239,3.0,7.0,86,0.00,,,0.03,0.000000,,2013-11-07 07:22:00,
2013-11-07 02:32:00,29.0,25.0,-100.00,WSW,239,3.0,7.0,86,0.00,,,0.03,0.000000,,2013-11-07 07:32:00,
2013-11-07 02:42:00,29.0,25.0,-100.00,WSW,239,3.0,7.0,86,0.00,,,0.03,0.000000,,2013-11-07 07:42:00,
2013-11-07 02:52:00,29.0,25.0,-100.00,WSW,239,3.0,7.0,86,0.00,,,0.03,0.000000,,2013-11-07 07:52:00,
2013-11-07 03:22:00,29.0,26.0,-100.00,WSW,238,2.0,7.0,89,0.00,,,0.03,0.000000,,2013-11-07 08:22:00,
2013-11-07 03:32:00,29.0,26.0,-100.00,WSW,238,2.0,7.0,89,0.00,,,0.03,0.000000,,2013-11-07 08:32:00,
2013-11-07 03:42:00,29.0,26.0,-100.00,WSW,238,2.0,7.0,89,0.00,,,0.03,0.000000,,2013-11-07 08:42:00,
2013-11-07 03:52:00,29.0,26.0,-100.00,WSW,238,2.0,7.0,89,0.00,,,0.03,0.000000,,2013-11-07 08:52:00,
2013-11-07 04:22:00,29.0,26.0,-100.00,SW,226,3.0,7.0,90,0.00,,,0.03,0.000000,,2013-11-07 09:22:00,
2013-11-07 04:33:00,29.0,26.0,-100.00,SW,226,3.0,7.0,90,0.00,,,0.03,0.000000,,2013-11-07 09:33:00,
2013-11-07 04:42:00,29.0,26.0,-100.00,SW,226,3.0,7.0,90,0.00,,,0.03,0.000000,,2013-11-07 09:42:00,
2013-11-07 04:53:00,29.0,26.0,-100.00,SW,226,3.0,7.0,90,0.00,,,0.03,0.000000,,2013-11-07 09:53:00,
2013-11-07 05:23:00,29.0,26.0,-100.00,SW,229,3.0,7.0,90,0.00,,,0.03,0.000000,,2013-11-07 10:23:00,
2013-11-07 05:33:00,29.0,26.0,-100.00,SW,229,3.0,7.0,90,0.00,,,0.03,0.000000,,2013-11-07 10:33:00,
2013-11-07 05:42:00,29.0,26.0,-100.00,SW,229,3.0,7.0,90,0.00,,,0.03,0.000000,,2013-11-07 10:42:00,
2013-11-07 05:52:00,29.0,26.0,-100.00,SW,229,3.0,7.0,90,0.00,,,0.03,0.000000,,2013-11-07 10:52:00,
2013-11-07 06:22:00,28.0,26.0,-100.00,SW,233,3.0,7.0,92,0.00,,,0.03,0.000000,,2013-11-07 11:22:00,
2013-11-07 06:43:00,28.0,26.0,-100.00,SW,233,3.0,7.0,92,0.00,,,0.03,0.000000,,2013-11-07 11:43:00,
2013-11-07 06:52:00,28.0,26.0,-100.00,SW,233,3.0,7.0,92,0.00,,,0.03,0.000000,,2013-11-07 11:52:00,
2013-11-07 07:22:00,28.0,26.0,-100.00,SW,215,2.0,6.0,93,0.00,,,0.03,0.000000,,2013-11-07 12:22:00,
2013-11-07 07:32:00,28.0,26.0,-100.00,SW,215,2.0,6.0,93,0.00,,,0.03,0.000000,,2013-11-07 12:32:00,
2013-11-07 07:42:00,28.0,26.0,-100.00,SW,215,2.0,6.0,93,0.00,,,0.03,0.000000,,2013-11-07 12:42:00,
2013-11-07 07:52:00,28.0,26.0,-100.00,SW,215,2.0,6.0,93,0.00,,,0.03,0.000000,,2013-11-07 12:52:00,
2013-11-07 08:21:00,28.0,26.0,-100.00,SW,225,3.0,6.0,93,0.00,,,0.03,1.000000,,2013-11-07 13:21:00,
2013-11-07 08:32:00,28.0,26.0,-100.00,SW,225,3.0,6.0,93,0.00,,,0.03,1.000000,,2013-11-07 13:32:00,
2013-11-07 08:42:00,28.0,26.0,-100.00,SW,225,3.0,6.0,93,0.00,,,0.03,1.000000,,2013-11-07 13:42:00,
2013-11-07 08:52:00,28.0,26.0,-100.00,SW,225,3.0,6.0,93,0.00,,,0.03,1.000000,,2013-11-07 13:52:00,
2013-11-07 09:22:00,29.0,27.0,-100.00,SW,224,2.0,7.0,93,0.00,,,0.03,12.000000,,2013-11-07 14:22:00,
2013-11-07 09:32:00,29.0,27.0,-100.00,SW,224,2.0,7.0,93,0.00,,,0.03,12.000000,,2013-11-07 14:32:00,
2013-11-07 09:42:00,29.0,27.0,-100.00,SW,224,2.0,7.0,93,0.00,,,0.03,12.000000,,2013-11-07 14:42:00,
2013-11-07 09:52:00,29.0,27.0,-100.00,SW,224,2.0,7.0,93,0.00,,,0.03,12.000000,,2013-11-07 14:52:00,
2013-11-07 10:22:00,30.0,28.0,-100.00,SW,226,1.0,6.0,92,0.00,,,0.03,23.000000,,2013-11-07 15:22:00,
2013-11-07 10:33:00,30.0,28.0,-100.00,SW,226,1.0,6.0,92,0.00,,,0.03,23.000000,,2013-11-07 15:33:00,
2013-11-07 10:43:00,30.0,28.0,-100.00,SW,226,1.0,6.0,92,0.00,,,0.03,23.000000,,2013-11-07 15:43:00,
2013-11-07 10:53:00,30.0,28.0,-100.00,SW,226,1.0,6.0,92,0.00,,,0.03,23.000000,,2013-11-07 15:53:00,
2013-11-07 11:23:00,31.0,28.0,-100.00,WNW,302,2.0,6.0,89,0.00,,,0.03,42.000000,,2013-11-07 16:23:00,
2013-11-07 11:33:00,31.0,28.0,-100.00,WNW,302,2.0,6.0,89,0.00,,,0.03,42.000000,,2013-11-07 16:33:00,
2013-11-07 11:42:00,31.0,28.0,-100.00,WNW,302,2.0,6.0,89,0.00,,,0.03,42.000000,,2013-11-07 16:42:00,
2013-11-07 11:52:00,31.0,28.0,-100.00,WNW,302,2.0,6.0,89,0.00,,,0.03,42.000000,,2013-11-07 16:52:00,
2013-11-07 12:22:00,32.0,28.0,-100.00,WSW,243,3.0,7.0,86,0.00,,,0.03,64.000000,,2013-11-07 17:22:00,
2013-11-07 12:33:00,32.0,28.0,-100.00,WSW,243,3.0,7.0,86,0.00,,,0.03,64.000000,,2013-11-07 17:33:00,
2013-11-07 12:43:00,32.0,28.0,-100.00,WSW,243,3.0,7.0,86,0.00,,,0.03,64.000000,,2013-11-07 17:43:00,
2013-11-07 12:52:00,32.0,28.0,-100.00,WSW,243,3.0,7.0,86,0.00,,,0.03,64.000000,,2013-11-07 17:52:00,
2013-11-07 13:23:00,34.0,29.0,-100.00,SW,235,3.0,9.0,82,0.01,,,0.04,100.000000,,2013-11-07 18:23:00,
2013-11-07 13:32:00,34.0,29.0,-100.00,SW,235,3.0,9.0,82,0.01,,,0.04,100.000000,,2013-11-07 18:32:00,
2013-11-07 13:42:00,34.0,29.0,-100.00,SW,235,3.0,9.0,82,0.01,,,0.04,100.000000,,2013-11-07 18:42:00,
2013-11-07 13:52:00,34.0,29.0,-100.00,SW,235,3.0,9.0,82,0.01,,,0.04,100.000000,,2013-11-07 18:52:00,
2013-11-07 14:21:00,32.0,26.0,-100.00,WNW,302,4.0,9.0,79,0.00,,,0.04,107.000000,,2013-11-07 19:21:00,
2013-11-07 14:32:00,32.0,26.0,-100.00,WNW,302,4.0,9.0,79,0.00,,,0.04,107.000000,,2013-11-07 19:32:00,
2013-11-07 14:42:00,32.0,26.0,-100.00,WNW,302,4.0,9.0,79,0.00,,,0.04,107.000000,,2013-11-07 19:42:00,
2013-11-07 14:52:00,32.0,26.0,-100.00,WNW,302,4.0,9.0,79,0.00,,,0.04,107.000000,,2013-11-07 19:52:00,
2013-11-07 15:22:00,33.0,30.0,-100.00,WNW,289,5.0,10.0,88,0.00,,,0.04,110.000000,,2013-11-07 20:22:00,
2013-11-07 15:32:00,33.0,30.0,-100.00,WNW,289,5.0,10.0,88,0.00,,,0.04,110.000000,,2013-11-07 20:32:00,
2013-11-07 15:42:00,33.0,30.0,-100.00,WNW,289,5.0,10.0,88,0.00,,,0.04,110.000000,,2013-11-07 20:42:00,
2013-11-07 15:52:00,33.0,30.0,-100.00,WNW,289,5.0,10.0,88,0.00,,,0.04,110.000000,,2013-11-07 20:52:00,
2013-11-07 16:22:00,32.0,28.0,-100.00,WNW,292,3.0,10.0,85,0.02,,,0.06,85.000000,,2013-11-07 21:22:00,
2013-11-07 16:34:00,32.0,28.0,-100.00,WNW,292,3.0,10.0,85,0.02,,,0.06,85.000000,,2013-11-07 21:34:00,
2013-11-07 16:43:00,32.0,28.0,-100.00,WNW,292,3.0,10.0,85,0.02,,,0.06,85.000000,,2013-11-07 21:43:00,
2013-11-07 16:53:00,32.0,28.0,-100.00,WNW,292,3.0,10.0,85,0.02,,,0.06,85.000000,,2013-11-07 21:53:00,
2013-11-07 17:23:00,31.0,28.0,-100.00,SW,235,3.0,8.0,90,0.00,,,0.06,40.000000,,2013-11-07 22:23:00,
2013-11-07 17:33:00,31.0,28.0,-100.00,SW,235,3.0,8.0,90,0.00,,,0.06,40.000000,,2013-11-07 22:33:00,
2013-11-07 17:43:00,31.0,28.0,-100.00,SW,235,3.0,8.0,90,0.00,,,0.06,40.000000,,2013-11-07 22:43:00,
2013-11-07 17:53:00,31.0,28.0,-100.00,SW,235,3.0,8.0,90,0.00,,,0.06,40.000000,,2013-11-07 22:53:00,
2013-11-07 18:22:00,29.0,27.0,-100.00,WNW,292,2.0,9.0,94,0.00,,,0.04,5.000000,,2013-11-07 23:22:00,
2013-11-07 18:34:00,29.0,27.0,-100.00,WNW,292,2.0,9.0,94,0.00,,,0.04,5.000000,,2013-11-07 23:34:00,
2013-11-07 18:43:00,29.0,27.0,-100.00,WNW,292,2.0,9.0,94,0.00,,,0.04,5.000000,,2013-11-07 23:43:00,
2013-11-07 18:53:00,29.0,27.0,-100.00,WNW,292,2.0,9.0,94,0.00,,,0.04,5.000000,,2013-11-07 23:53:00,
2013-11-07 19:22:00,29.0,28.0,-100.00,WSW,243,3.0,6.0,95,0.00,,,0.03,0.000000,,2013-11-08 00:22:00,
2013-11-07 19:32:00,29.0,28.0,-100.00,WSW,243,3.0,6.0,95,0.00,,,0.03,0.000000,,2013-11-08 00:32:00,
2013-11-07 19:42:00,29.0,28.0,-100.00,WSW,243,3.0,6.0,95,0.00,,,0.03,0.000000,,2013-11-08 00:42:00,
2013-11-07 19:52:00,29.0,28.0,-100.00,WSW,243,3.0,6.0,95,0.00,,,0.03,0.000000,,2013-11-08 00:52:00,
2013-11-07 20:22:00,29.0,28.0,-100.00,WSW,238,2.0,5.0,95,0.00,,,0.03,0.000000,,2013-11-08 01:22:00,
2013-11-07 20:32:00,29.0,28.0,-100.00,WSW,238,2.0,5.0,95,0.00,,,0.03,0.000000,,2013-11-08 01:32:00,
2013-11-07 20:42:00,29.0,28.0,-100.00,WSW,238,2.0,5.0,95,0.00,,,0.03,0.000000,,2013-11-08 01:42:00,
2013-11-07 20:52:00,29.0,28.0,-100.00,WSW,238,2.0,5.0,95,0.00,,,0.03,0.000000,,2013-11-08 01:52:00,
2013-11-07 21:21:00,28.0,27.0,-100.00,SW,226,2.0,5.0,95,0.00,,,0.03,0.000000,,2013-11-08 02:21:00,
2013-11-07 21:32:00,28.0,27.0,-100.00,SW,226,2.0,5.0,95,0.00,,,0.03,0.000000,,2013-11-08 02:32:00,
2013-11-07 21:42:00,28.0,27.0,-100.00,SW,226,2.0,5.0,95,0.00,,,0.03,0.000000,,2013-11-08 02:42:00,
2013-11-07 21:52:00,28.0,27.0,-100.00,SW,226,2.0,5.0,95,0.00,,,0.03,0.000000,,2013-11-08 02:52:00,
2013-11-07 22:22:00,28.0,27.0,-100.00,WNW,285,1.0,4.0,95,0.00,,,0.03,0.000000,,2013-11-08 03:22:00,
2013-11-07 22:34:00,28.0,27.0,-100.00,WNW,285,1.0,4.0,95,0.00,,,0.03,0.000000,,2013-11-08 03:34:00,
2013-11-07 22:44:00,28.0,27.0,-100.00,WNW,285,1.0,4.0,95,0.00,,,0.03,0.000000,,2013-11-08 03:44:00,
2013-11-07 22:55:00,28.0,27.0,-100.00,WNW,285,1.0,4.0,95,0.00,,,0.03,0.000000,,2013-11-08 03:55:00,
2013-11-07 23:23:00,28.0,27.0,-100.00,WSW,243,1.0,3.0,95,0.00,,,0.03,0.000000,,2013-11-08 04:23:00,
2013-11-07 23:34:00,28.0,27.0,-100.00,WSW,243,1.0,3.0,95,0.00,,,0.03,0.000000,,2013-11-08 04:34:00,
2013-11-07 23:43:00,28.0,27.0,-100.00,WSW,243,1.0,3.0,95,0.00,,,0.03,0.000000,,2013-11-08 04:43:00,
2013-11-07 23:54:00,28.0,27.0,-100.00,WSW,243,1.0,3.0,95,0.00,,,0.03,0.000000,,2013-11-08 04:54:00,